Regional Weather Roundup
Issued by NWS

Home | Current Version | Previous Version | Text Only | Print | Product List | Glossary On
Versions: 1 2 3 4 5 6 7 8 9 10 11 12 13 14 15 16 17 18 19 20 21 22 23 24 25 26 27 28 29 30 31 32 33 34 35 36 37 38 39 40 41 42 43 44 45 46 47 48 49 50
000
ASUS42 KFFC 122203
RWRGA
WEATHER ROUNDUP FOR GEORGIA
NATIONAL WEATHER SERVICE PEACHTREE CITY GA
500 PM EST FRI FEB 12 2016

NOTE: "FAIR" INDICATES FEW OR NO CLOUDS BELOW 12,000 FEET WITH NO
SIGNIFICANT WEATHER AND/OR OBSTRUCTIONS TO VISIBILITY.

* = USE WITH CAUTION. THE STATIONS MARKED WITH AN ASTERISK MAY NOT
REPORT WEATHER SUCH AS PRECIPITATION, FOG, OR THUNDER AND ARE NOT
QUALITY CONTROLLED BY NWS.

THE REMARK "TC" DENOTES TEMPERATURE READING IN DEGREES CELSIUS.

GAZ001>058-122300-
NORTH GEORGIA

CITY           SKY/WX    TMP DP  RH WIND       PRES   REMARKS
ATLANTA        MOSUNNY   60  31  33 NW18G29   30.04R
ATHENS         SUNNY     59  30  33 W15G24    30.02R
CHAMBLEE       SUNNY     58  32  37 W18G29    30.04R
PEACHTREE CITY SUNNY     62  32  32 W12G21    30.05R
ROME           SUNNY     58  29  33 NW13G22   30.07R
WEST ATLANTA   SUNNY     59  31  34 W13       30.05R
GAINESVILLE    MOSUNNY   55  29  36 W12       30.04R
CARTERSVILLE   SUNNY     58  30  34 VRB6      30.07R


CITY           SKY/WX    TMP DP  RH WIND       PRES   REMARKS
DALTON*        PTSUNNY   48  34  57 N9        30.09R
LAWRENCEVILLE* SUNNY     57  30  35 W14G25    30.03R
MARIETTA       MOSUNNY   58  32  36 W20G32    30.04R
KENNESAW*      MOSUNNY   57  28  33 W15G26    30.06R
BLAIRSVILLE*     N/A     42  12  29 N3        30.06R
$$

GAZ059>098-102>109-122300-
CENTRAL GEORGIA

CITY           SKY/WX    TMP DP  RH WIND       PRES   REMARKS
AUGUSTA-BUSH   SUNNY     58  38  47 N8        30.03R
AUGUSTA-DANIEL SUNNY     57  36  45 NW7       30.03S
COLUMBUS       MOSUNNY   67  40  37 W14G21    30.06R
MACON          SUNNY     66  46  48 SW9       30.03R
ROBINS AFB     MOSUNNY   67  46  47 W14G23    30.02R


CITY           SKY/WX    TMP DP  RH WIND       PRES   REMARKS
LAGRANGE*      SUNNY     69  42  37 NW20G25   30.06R
SYLVANIA*      SUNNY     64  53  67 W6        30.03S
MILLEDGEVILLE* SUNNY     63  37  39 CALM      30.02R
$$

GAZ099>101-110>166-122300-
SOUTH GEORGIA

CITY           SKY/WX    TMP DP  RH WIND       PRES   REMARKS
SAVANNAH       MOSUNNY   67  51  56 W13G21    30.02R
VALDOSTA       MOSUNNY   75  48  38 VRB7      30.06F
ALMA           MOSUNNY   70  52  52 W10       30.04S
ST SIMONS      CLOUDY    71  52  50 W9        30.02S
FT STEWART     MOSUNNY   68  51  55 W14G25    30.01R
ALBANY         MOSUNNY   71  46  40 W16       30.09R
HUNTER AFB     MOSUNNY   68  53  59 W15       30.00R
MOODY AFB      SUNNY     74  48  39 W16       30.04R
BRUNSWICK      PTSUNNY   72  54  53 W10       30.04R


CITY           SKY/WX    TMP DP  RH WIND       PRES   REMARKS
BAINBRIDGE*    SUNNY     73  50  43 W16       30.08S
MOULTRIE*      SUNNY     72  50  46 W13G21    30.08R
VIDALIA*       MOSUNNY   64  52  63 W7G16     30.04S
WAYCROSS*      SUNNY     76  55  49 W13G20    30.04R
DOUGLAS*       MOSUNNY   72  50  46 W13G23    30.07R
$$



USA.gov is the U.S. government's official web portal to all federal, state and local government web resources and services.